Starlink 5161

operational
NORAD ID: 54163 Int'l Des: 2022-141 Owner: SPXS Country: US Constellation: starlink
LEOCIRCULAR

About Starlink 5161

Description loading...

Live Position

Loading 3D Globe...

Upcoming Passes

Altitude History

Altitude vs Time

uPlot chart will show altitude changes over time

Two-Line Element Set

1 54163U 22141G 26048.47606659 -.00000774 00000-0 -30524-4 0 9990
2 54163 53.2167 95.0308 0001345 100.2671 259.8473 15.08843012182809
Epoch: Feb 17, 2026 • Age: 13 hours

Current Status

Altitude 543.6 km
Velocity 7.59 km/s
Sub-Earth Point -12.74°S, 66.09°W
Launch Date Oct 28, 2022
Age 3.3 years
Type internet

Technical Details

Classification Payload
Mass 305.00 kg
Dry Mass 290.00 kg
Total Mass 305.00 kg
Length 0.20 m
Diameter 2.80 m
Span 9.00 m
Shape Box + pan
Manufacturer SPXS
Bus Type Starlink
Phase Status In Orbit
Owner/State SPXS/US

Large Constellations

Loading constellations...